Find CE-SAT-IIB

NORAD ID: 46818 Int'l Des: 2020-077 Owner: CANON Country: J operational
LEOCIRCULARRETROGRADE

实时位置

正在加载3D地球...

关于 CE-SAT-IIB

正在加载描述...

即将过境

Passes for default location (London). Set your location on the main map for personalized predictions.

高度历史

Loading altitude history...

两行轨道根数

1 46818U 20077F 26104.12612634 .00072672 00000-0 31629-3 0 9999
2 46818 97.2064 182.9393 0002198 82.9551 277.1970 15.84589247305095
Epoch: Apr 14, 2026 • Age: 19 hours

当前状态

高度 341.9 km
速度 7.70 km/s
星下点 -60.32°S, 174.53°E
发射日期 Oct 28, 2020
运行时间 5.4 years
类型 other

技术详情

分类 Payload
质量 35.00 kg
干质量 35.00 kg
总质量 35.00 kg
长度 0.90 m
直径 0.50 m
跨度 0.90 m
形状 Box
制造商 CANON
平台类型 CE-SAT
阶段状态 In Orbit
所有者/国家 CANON/J

Most Searched